• în Republica Moldova
  • Lista ţărilor
  • Pe 7 zile
  • Temperatura apei
  • Hartă satelitară
  • Meteo pe hartă
  • Widget-uri
  • user-avatar
    Intrare

    Meteo pe oră la Mayrhofen

    Astăzi, 23 August, Miercuri

    Timp Temperatura Precipitaţii Vânt Presiune Umiditate
    00:00 +8°C° 0 mm 1 m/s 619 mmHg 96%
    01:00 +7°C° 0 mm 1 m/s 619 mmHg 96%
    02:00 +7°C° 0 mm 1 m/s 619 mmHg 94%
    03:00 +7°C° 0 mm 1 m/s 619 mmHg 92%
    04:00 +7°C° 0 mm 1 m/s 618 mmHg 90%
    05:00 +8°C° 0 mm 1 m/s 619 mmHg 85%
    06:00 +9°C° 0 mm 1 m/s 620 mmHg 79%
    07:00 +11°C° 0 mm 1 m/s 620 mmHg 74%
    08:00 +13°C° 0 mm 1 m/s 621 mmHg 64%
    09:00 +16°C° 0 mm 1 m/s 622 mmHg 54%
    10:00 +19°C° 0 mm 1 m/s 623 mmHg 43%
    11:00 +20°C° 0 mm 1 m/s 623 mmHg 42%
    12:00 +20°C° 0 mm 2 m/s 623 mmHg 41%
    13:00 +20°C° 0 mm 2 m/s 623 mmHg 40%
    14:00 +20°C° 0,2 mm 2 m/s 623 mmHg 42%
    15:00 +20°C° 0,2 mm 2 m/s 623 mmHg 44%
    16:00 +20°C° 0,2 mm 3 m/s 623 mmHg 46%
    17:00 +17°C° 0,3 mm 2 m/s 622 mmHg 57%
    18:00 +15°C° 0,3 mm 2 m/s 621 mmHg 68%
    19:00 +13°C° 0,3 mm 1 m/s 620 mmHg 79%
    20:00 +11°C° 0 mm 1 m/s 620 mmHg 81%
    21:00 +10°C° 0 mm 1 m/s 620 mmHg 82%
    22:00 +9°C° 0 mm 1 m/s 620 mmHg 84%
    23:00 +9°C° 0 mm 1 m/s 620 mmHg 82%

    Mâine, 24 August, Joi

    Timp Temperatura Precipitaţii Vânt Presiune Umiditate
    00:00 +9°C° 0 mm 1 m/s 620 mmHg 81%
    01:00 +9°C° 0 mm 1 m/s 620 mmHg 79%
    02:00 +9°C° 0 mm 1 m/s 620 mmHg 78%
    03:00 +9°C° 0 mm 1 m/s 620 mmHg 76%
    04:00 +8°C° 0 mm 1 m/s 620 mmHg 75%
    05:00 +10°C° 0 mm 1 m/s 620 mmHg 71%
    06:00 +12°C° 0 mm 1 m/s 621 mmHg 67%
    07:00 +13°C° 0 mm 1 m/s 622 mmHg 64%
    08:00 +16°C° 0 mm 1 m/s 623 mmHg 56%
    09:00 +19°C° 0 mm 1 m/s 624 mmHg 48%
    10:00 +20°C° 0 mm 0 m/s 625 mmHg 40%
    11:00 +22°C° 0 mm 1 m/s 625 mmHg 38%
    12:00 +23°C° 0 mm 1 m/s 625 mmHg 37%
    13:00 +24°C° 0 mm 1 m/s 625 mmHg 36%
    14:00 +23°C° 0,2 mm 1 m/s 624 mmHg 41%
    15:00 +22°C° 0,2 mm 1 m/s 624 mmHg 46%
    16:00 +21°C° 0,2 mm 1 m/s 624 mmHg 51%
    17:00 +19°C° 1,2 mm 1 m/s 623 mmHg 62%
    18:00 +16°C° 1,2 mm 1 m/s 622 mmHg 73%
    19:00 +13°C° 1,2 mm 0 m/s 622 mmHg 84%
    20:00 +13°C° 0,2 mm 1 m/s 622 mmHg 85%
    21:00 +12°C° 0,2 mm 1 m/s 622 mmHg 86%
    22:00 +12°C° 0,2 mm 1 m/s 622 mmHg 87%
    23:00 +11°C° 0 mm 1 m/s 622 mmHg 87%

    Poimâine, 25 August, Vineri

    Timp Temperatura Precipitaţii Vânt Presiune Umiditate
    00:00 +11°C° 0 mm 1 m/s 621 mmHg 87%
    01:00 +10°C° 0 mm 1 m/s 621 mmHg 87%
    02:00 +10°C° 0 mm 1 m/s 621 mmHg 87%
    03:00 +10°C° 0 mm 1 m/s 621 mmHg 87%
    04:00 +9°C° 0 mm 1 m/s 621 mmHg 87%
    05:00 +11°C° 0 mm 1 m/s 621 mmHg 83%
    06:00 +12°C° 0 mm 1 m/s 622 mmHg 79%
    07:00 +13°C° 0 mm 1 m/s 622 mmHg 76%
    08:00 +16°C° 0 mm 1 m/s 623 mmHg 66%
    09:00 +19°C° 0 mm 1 m/s 624 mmHg 56%
    10:00 +20°C° 0 mm 0 m/s 625 mmHg 46%
    11:00 +21°C° 0,1 mm 0 m/s 625 mmHg 43%
    12:00 +24°C° 0,1 mm 1 m/s 625 mmHg 40%
    13:00 +24°C° 0,1 mm 1 m/s 625 mmHg 38%
    14:00 +24°C° 0,2 mm 1 m/s 625 mmHg 40%
    15:00 +23°C° 0,2 mm 1 m/s 625 mmHg 43%
    16:00 +23°C° 0,2 mm 1 m/s 624 mmHg 46%
    17:00 +20°C° 0,3 mm 1 m/s 624 mmHg 58%
    18:00 +18°C° 0,3 mm 1 m/s 623 mmHg 69%
    19:00 +13°C° 0,3 mm 0 m/s 622 mmHg 81%
    20:00 +14°C° 0,2 mm 1 m/s 622 mmHg 81%
    21:00 +14°C° 0,2 mm 1 m/s 622 mmHg 81%
    22:00 +14°C° 0,2 mm 1 m/s 622 mmHg 80%
    23:00 +14°C° 0,1 mm 2 m/s 622 mmHg 80%

    26 August, Sâmbătă

    Timp Temperatura Precipitaţii Vânt Presiune Umiditate
    00:00 +13°C° 0,1 mm 2 m/s 622 mmHg 79%
    01:00 +13°C° 0,1 mm 2 m/s 622 mmHg 78%
    02:00 +13°C° 0 mm 2 m/s 622 mmHg 78%
    03:00 +13°C° 0 mm 1 m/s 622 mmHg 78%
    04:00 +12°C° 0 mm 1 m/s 621 mmHg 77%
    05:00 +13°C° 0 mm 1 m/s 622 mmHg 75%
    06:00 +14°C° 0 mm 1 m/s 622 mmHg 72%
    07:00 +15°C° 0 mm 1 m/s 623 mmHg 70%
    08:00 +18°C° 0 mm 1 m/s 623 mmHg 61%
    09:00 +21°C° 0 mm 1 m/s 624 mmHg 53%
    10:00 +23°C° 0 mm 1 m/s 625 mmHg 45%
    11:00 +24°C° 0,1 mm 1 m/s 625 mmHg 42%
    12:00 +24°C° 0,1 mm 1 m/s 625 mmHg 40%
    13:00 +25°C° 0,1 mm 1 m/s 625 mmHg 38%
    14:00 +25°C° 0,1 mm 1 m/s 625 mmHg 40%
    15:00 +24°C° 0,1 mm 1 m/s 624 mmHg 42%
    16:00 +24°C° 0,1 mm 1 m/s 624 mmHg 44%
    17:00 +21°C° 0,2 mm 1 m/s 623 mmHg 54%
    18:00 +19°C° 0,2 mm 1 m/s 623 mmHg 63%
    19:00 +16°C° 0,2 mm 1 m/s 622 mmHg 73%
    20:00 +15°C° 0,3 mm 1 m/s 622 mmHg 74%
    21:00 +15°C° 0,3 mm 1 m/s 622 mmHg 74%
    22:00 +14°C° 0,3 mm 1 m/s 622 mmHg 75%
    23:00 +13°C° 0 mm 1 m/s 621 mmHg 75%

    27 August, Duminică

    Timp Temperatura Precipitaţii Vânt Presiune Umiditate
    00:00 +13°C° 0 mm 1 m/s 621 mmHg 75%
    01:00 +12°C° 0 mm 1 m/s 621 mmHg 74%
    02:00 +12°C° 0,1 mm 1 m/s 620 mmHg 75%
    03:00 +11°C° 0,1 mm 1 m/s 620 mmHg 75%
    04:00 +11°C° 0,1 mm 1 m/s 620 mmHg 75%
    05:00 +12°C° 0 mm 1 m/s 620 mmHg 72%
    06:00 +14°C° 0 mm 1 m/s 621 mmHg 69%
    07:00 +15°C° 0 mm 1 m/s 622 mmHg 67%
    08:00 +19°C° 0 mm 1 m/s 623 mmHg 58%
    09:00 +19°C° 0 mm 0 m/s 624 mmHg 49%
    10:00 +22°C° 0 mm 0 m/s 624 mmHg 40%
    11:00 +24°C° 0 mm 1 m/s 624 mmHg 39%
    12:00 +25°C° 0 mm 1 m/s 624 mmHg 37%
    13:00 +25°C° 0 mm 1 m/s 624 mmHg 35%
    14:00 +25°C° 0,1 mm 1 m/s 624 mmHg 39%
    15:00 +24°C° 0,1 mm 1 m/s 623 mmHg 43%
    16:00 +24°C° 0,1 mm 1 m/s 623 mmHg 46%
    17:00 +21°C° 1 mm 1 m/s 622 mmHg 58%
    18:00 +19°C° 1 mm 1 m/s 621 mmHg 69%
    19:00 +15°C° 1 mm 0 m/s 621 mmHg 80%
    20:00 +14°C° 0,7 mm 0 m/s 621 mmHg 81%
    21:00 +15°C° 0,7 mm 1 m/s 621 mmHg 82%
    22:00 +14°C° 0,7 mm 1 m/s 621 mmHg 83%
    23:00 +14°C° 0,1 mm 1 m/s 621 mmHg 83%

    28 August, Luni

    Timp Temperatura Precipitaţii Vânt Presiune Umiditate
    00:00 +14°C° 0,1 mm 1 m/s 621 mmHg 83%
    01:00 +13°C° 0,1 mm 1 m/s 620 mmHg 83%
    02:00 +13°C° 0,1 mm 1 m/s 620 mmHg 83%
    03:00 +12°C° 0,1 mm 1 m/s 620 mmHg 83%
    04:00 +12°C° 0,1 mm 1 m/s 620 mmHg 83%
    05:00 +13°C° 0,1 mm 1 m/s 621 mmHg 82%
    06:00 +14°C° 0,1 mm 1 m/s 621 mmHg 80%
    07:00 +14°C° 0,1 mm 1 m/s 622 mmHg 79%
    08:00 +16°C° 0,1 mm 1 m/s 622 mmHg 70%
    09:00 +19°C° 0,1 mm 1 m/s 623 mmHg 61%
    10:00 +21°C° 0,1 mm 1 m/s 624 mmHg 51%
    11:00 +21°C° 0,1 mm 2 m/s 624 mmHg 48%
    12:00 +23°C° 0,1 mm 2 m/s 624 mmHg 44%
    13:00 +24°C° 0,1 mm 2 m/s 624 mmHg 40%
    14:00 +24°C° 0 mm 2 m/s 624 mmHg 42%
    15:00 +23°C° 0 mm 2 m/s 624 mmHg 44%
    16:00 +23°C° 0 mm 2 m/s 624 mmHg 46%
    17:00 +20°C° 0,1 mm 2 m/s 623 mmHg 58%
    18:00 +17°C° 0,1 mm 2 m/s 622 mmHg 70%
    19:00 +15°C° 0,1 mm 1 m/s 622 mmHg 82%
    20:00 +14°C° 0 mm 1 m/s 622 mmHg 85%
    21:00 +13°C° 0 mm 1 m/s 622 mmHg 87%
    22:00 +12°C° 0 mm 1 m/s 622 mmHg 90%
    23:00 +12°C° 0 mm 1 m/s 622 mmHg 89%
    Arată mai mult